Location: ???? ?????
(30.0052°N, 31.2891°E)
Time: 04:30:03
(UTC+00:00)

PSLV DEB - Visible Passes

Search period start: 28 January 2023 00:00
Search period end: 07 February 2023 00:00
Orbit: 618 x 679 km, 98.3° (Epoch: 25 January)

Date Brightness Start Highest point End Pass type
(mag) Time Alt. Az. Time Alt. Az. Time Alt. Az.
28 Jan ? 02:52:13 10° NNE 02:56:49 59° E 03:01:21 10° S visible
29 Jan ? 03:18:22 10° N 03:23:00 67° WNW 03:27:34 10° SSW visible
30 Jan ? 02:09:21 10° NE 02:12:28 18° E 02:15:33 10° SE visible
30 Jan ? 03:44:57 10° N 03:49:05 33° WNW 03:53:12 10° SW visible
31 Jan ? 02:34:32 10° NNE 02:38:47 35° E 02:42:59 10° SSE visible
31 Jan ? 04:12:06 10° NNW 04:15:05 17° WNW 04:18:03 10° WSW visible
01 Feb ? 03:00:23 10° NNE 03:05:01 73° E 03:09:37 10° S visible
02 Feb ? 01:53:40 10° E 01:54:18 10° E 01:54:57 10° E visible
02 Feb ? 03:26:39 10° N 03:31:10 54° WNW 03:35:39 10° SSW visible
03 Feb ? 02:17:08 10° NE 02:20:41 21° E 02:24:10 10° SE visible
03 Feb ? 03:53:20 10° NNW 03:57:13 27° WNW 04:01:04 10° SW visible
04 Feb ? 02:42:33 10° NNE 02:46:58 43° E 02:51:19 10° S visible
05 Feb ? 03:08:31 10° NNE 03:13:11 90° SE 03:17:45 10° SSW visible
06 Feb ? 02:00:25 10° ENE 02:02:30 13° E 02:04:34 10° ESE visible
06 Feb ? 03:34:53 10° N 03:39:16 44° WNW 03:43:36 10° SW visible
